Regional Weather Roundup
Issued by NWS

Home | Current Version | Previous Version | Text Only | Print | Product List | Glossary On
Versions: 1 2 3 4 5 6 7 8 9 10 11 12 13 14 15 16 17 18 19 20 21 22 23 24 25 26 27 28 29 30 31 32 33 34 35 36 37 38 39 40 41 42 43 44 45 46 47 48 49 50
000
ASUS44 KFWD 032315
RWRTX
NORTH TEXAS HOURLY WEATHER ROUNDUP
NATIONAL WEATHER SERVICE FORT WORTH TX
500 PM CST TUE MAR 03 2015

NOTE: "FAIR" INDICATES FEW OR NO CLOUDS BELOW 12,000 FEET WITH NO
SIGNIFICANT WEATHER AND/OR OBSTRUCTIONS TO VISIBILITY.

TXZ118-119-040000-
DALLAS/FORT WORTH METROPLEX

CITY           SKY/WX    TMP DP  RH WIND       PRES   REMARKS
DFW AIRPORT    CLOUDY    52  51  97 S8        29.82F FOG
DALLAS LOVE    DRIZZLE   53  52  96 SE8       29.82F FOG
FTW MEACHAM    CLOUDY    54  52  93 S12       29.81S FOG
DAL-EXECUTIVE  CLOUDY    52  52 100 S6        29.82F FOG
FTW-ALLIANCE   DRZL/FOG  52  51  97 S7        29.82S VSB 1
FTW-SPINKS     FOG       52  52 100 SE6       29.84F VSB 1
ARLINGTON      CLOUDY    53  50  89 S10       29.82F FOG
GRAND PRAIRIE  CLOUDY    52  52 100 S6        29.84F FOG
ADDISON        CLOUDY    52  50  93 SE6       29.83F FOG
MESQUITE       CLOUDY    50  48  93 CALM      29.85F FOG
LANCASTER      FOG       50  48  94 SE5       29.84F VSB 1
$$

TXZ091>094-102>105-117-120-121-131>134-040000-
NORTH CENTRAL TEXAS

CITY           SKY/WX    TMP DP  RH WIND       PRES   REMARKS
SHRMAN/DENISON FOG       50  50 100 E3        29.84S VSB 1
GAINESVILLE    CLOUDY    48  47  97 SE7       29.84F FOG
BOWIE          CLOUDY    53  50  89 E5        29.80S
BRIDGEPORT     CLOUDY    54  54 100 E3        29.83S FOG
DECATUR        CLOUDY    51  51  99 SE3       29.81S FOG
DENTON         CLOUDY    50  49  96 SE5       29.82S FOG
MCKINNEY       CLOUDY    50  49  96 SE7       29.83F FOG
GREENVILLE     CLOUDY    50  48  93 CALM      29.84F FOG
TERRELL        LGT RAIN  51  49  92 CALM      29.84F FOG
WAXAHACHIE     FOG       51  51 100 S8        29.84F VSB 1/2
CLEBURNE       FOG       50  50 100 SE7       29.84S VSB 1/4
GRANBURY       CLOUDY    53  51  92 SE6       29.83F FOG
$$

TXZ083>090-098>101-113>116-127>130-139>142-154-155-040000-
WESTERN NORTH TEXAS

CITY           SKY/WX    TMP DP  RH WIND       PRES   REMARKS
WICHITA FALLS  PTSUNNY   59  48  67 S5        29.79S
WF-KICKAPOO    PTSUNNY   60  50  69 SW6       29.81F
VERNON         CLOUDY    60  43  52 CALM      29.80S
ABILENE        CLOUDY    58  48  69 SW3       29.81S
ABILENE-DYESS  CLOUDY    58  48  69 S2        29.79F
BRECKENRIDGE   MOSUNNY   63  50  63 MISG      29.80F HAZE
GRAHAM         MOSUNNY   60  54  80 S3        29.79S
MINERAL WELLS  CLOUDY    53  51  93 SE8       29.80S FOG
STEPHENVILLE   CLOUDY    57  53  85 SE5       29.84R
COMANCHE       CLOUDY    62  57  84 SW5       29.82R
BROWNWOOD      MOSUNNY   61  54  77 N6        29.80F
COLEMAN        SUNNY     68  57  67 E6        29.79S
BRADY          SUNNY     72  55  56 S9        29.78R
$$

TXZ143>147-156>162-174-175-040000-
CENTRAL TEXAS

CITY           SKY/WX    TMP DP  RH WIND       PRES   REMARKS
WACO           FOG       51  50  96 E3        29.84S VSB 1/4
WACO-MCGREGOR  CLOUDY    55  52  88 S8        29.84F
HILLSBORO      FOG       52  51  96 S5        29.84F VSB 1/2
CORSICANA      FOG       52  51  97 NW6       29.85S VSB 1/2
MEXIA          CLOUDY    58  58  99 SW6       29.84R FOG
HEARNE         CLOUDY    58  56  92 W5        29.85F FOG
CAMERON        CLOUDY    55  55  99 S3        29.84F FOG
TEMPLE         CLOUDY    55  52  88 S13       29.82F VSB 1
KILLEEN        CLOUDY    59  59  99 S9        29.81S FOG
KILLEEN-SKYLRK CLOUDY    59  55  88 S7        29.80F
FORT HOOD      CLOUDY    57  57  99 SE8       29.81F
GATESVILLE     CLOUDY    55  55 100 SE5       29.84S FOG
HAMILTON       FOG       54  54 100 E12       29.83R VSB 3/4
LAMPASAS       CLOUDY    64  60  87 S7        29.80F
$$

TXZ095>097-106>112-122>126-135>138-148>153-164>167-040000-
EAST TEXAS

CITY           SKY/WX    TMP DP  RH WIND       PRES   REMARKS
PARIS          CLOUDY    45  41  87 E7        29.86F
SULPHUR SPRNGS DRIZZLE   49  49 100 N6        29.86F
MOUNT PLEASANT CLOUDY    62  60  94 CALM      29.85F
GILMER         DRIZZLE   67  62  84 SE6       29.84F
MINEOLA        CLOUDY    66  64  94 CALM      29.84F FOG
TYLER          CLOUDY    68  63  84 S7        29.83F
LONGVIEW       CLOUDY    69  62  78 SE9       29.84F
MARSHALL       PTSUNNY   72  66  81 S8        29.88F
ATHENS         CLOUDY    66  63  88 CALM      29.82F
PALESTINE      CLOUDY    69  65  87 SE5       29.85S
JACKSONVILLE   CLOUDY    70  64  82 S8        29.86S
HENDERSON      CLOUDY    70  63  79 S7        29.85F
NACOGDOCHES    PTSUNNY   72  64  78 S7        29.86F
LUFKIN         PTSUNNY   76  63  64 S14       29.85F
$$

SUPPLEMENTAL OBSERVATIONS (CENTRAL)

CITY           SKY/WX    TMP DP  RH WIND       PRES   REMARKS
$$

SUPPLEMENTAL OBSERVATIONS (WEST)

CITY           SKY/WX    TMP DP  RH WIND       PRES   REMARKS
$$

SUPPLEMENTAL OBSERVATIONS (EAST)

CITY           SKY/WX    TMP DP  RH WIND       PRES   REMARKS
$$

SUPPLEMENTAL OBSERVATIONS ARE A COLLECTION OF AUTOMATED INSTRUMENTS
THAT ARE MAINTAINED BY A VARIETY OF FEDERAL AND STATE AGENCIES.
CERTAIN ELEMENTS...SUCH AS HUMIDITY VALUES AND SUSTAINED WIND
SPEEDS...MAY BE APPROXIMATED.



USA.gov is the U.S. government's official web portal to all federal, state and local government web resources and services.